STARLINK-2039, 47655

Orbit data source: Space-Track

STARLINK-2039, 47655 is a payload satellite owned by SpaceX/Seattle (US) in LEO that was launched on Tue, 16 Feb 2021 UTC via an FALCON 9 launch vehicle from the Air Force Eastern Test Range (AFETR). Payload-class satellites include a variety of spacecraft equipped with specific instruments for various scientific and technological missions. These include communications satellites like Starlink; space stations such as the ISS; scientific satellites like the Hubble; Earth observation satellites from companies like Planet Labs, Umbra, and HawkEye 360; GPS; miniature CubeSats for education and research; and military/defense satellites.

Loading next visibility...
Identifier
47655, 2021-012AM
Orbit
LEO
Country
Flag of USUS
Related business
Manufacturer
SpaceX/Seattle
Mission
Operational Commercial Communications
Bus & Motor
STARLINK, Unknown motor
Mass
260 kg wet, ~248 kg dry
Launch date (UTC)
2021-02-16 (5 years ago)
Launch vehicle
FALCON 9
Launch site
Air Force Eastern Test Range (AFETR)
Object type
Payload
Rocket body
Debris
Shape & HBR
Box + 1 Pan, 10.1 m
Radar Cross Section
13.562 m², Large (>1 m²)

Expand to show TLE details & history
Last TLE update: 6 hours ago

TLE from 6 hours ago
0 STARLINK-2039
1 47655U 21012AM  25343.64777663  .00006579  00000-0  45988-3 0  9990
2 47655  53.0541 115.8346 0001331  94.4337 265.6804 15.06419563266413
Epoch: 2025-12-09T15:32Z
TLE epoch observation values (Epoch: 2025-12-09T15:32:47.900Z)
Latitude
-0.00004°
Longitude
164.00554°
Altitude
548.1 km
Speed
7.589 km/s
True Right ascension
07h 43m 20s
True Declination
0° 00' 00"
Sunlit
Object was in full shadow at epoch
Visualization orbit readout
Latitude
Unknown
Longitude
Unknown
Altitude
Unknown
Speed
Unknown
Apparent Right ascension
Unknown
Apparent Declination
Unknown
Sunlit
N/A
Visualization observer readout
Local Sidereal Time
19:56:27
Azimuth
Unknown
Elevation
Unknown
Doppler factor
Unknown
Orbital elements
Apogee altitude
548.344 km
Perigee altitude
546.501 km
Semi-major axis
6,925.559 km
Eccentricity
0.00013
Inclination
53.0541°
RAAN
115.8346°
Arg. of periapsis
94.4337°
True anomaly
265.66519°
Mean anomaly
265.6804°
Eccentric anomaly
265.6728°
Mean motion
3.76583 °/min
Orbital period
95.6 mins
BSTAR
0.00045988
Loading maneuver chart data...
Computing Atmospheric mass density...
Loading historical data...
Loading historical data...
Loading historical data...
Loading historical data...
Loading historical data...
Loading historical data...
Loading historical data...

Documentation

Showing up to 5 results
|